GRIFN27 KNIP-KNIP

Flight info

Callsign GRIFN27
Flight time N/A
Altitude 27000
Route KJ87Q PFNLB DTSLB PNSCB BFMLB BFMLC PNSLC PNSRC DTSCC PFNCC PFNCD DTSRD DTSLD PNSCD PNSLE PNSRE DTSRE PFNRE KJ84Q
Aircraft P8/M-SDE2E3FGHIRWXY/LB1

Departure

Time 2026-04-30 19:50
Airport Jacksonville Naval Air Station (Towers Field) (KNIP)

Arrival

Time N/A
Airport Jacksonville Naval Air Station (Towers Field) (KNIP)
Time Latitude Longitude Altitude Speed Heading
2026-04-30 19:36 30.22840 -81.68047 31 ft 0 kts 270°
2026-04-30 19:42 30.22840 -81.68057 31 ft 4 kts 271°
2026-04-30 19:42 30.22864 -81.68094 31 ft 7 kts 347°
2026-04-30 19:43 30.22928 -81.68098 31 ft 11 kts
2026-04-30 19:43 30.23003 -81.68097 31 ft 9 kts
2026-04-30 19:43 30.23032 -81.68053 31 ft 7 kts 80°
2026-04-30 19:44 30.23034 -81.67927 31 ft 9 kts 88°
2026-04-30 19:44 30.23037 -81.67843 31 ft 11 kts 88°
2026-04-30 19:44 30.23041 -81.67744 31 ft 13 kts 87°
2026-04-30 19:44 30.23044 -81.67631 31 ft 15 kts 89°
2026-04-30 19:45 30.23046 -81.67502 31 ft 16 kts 89°
2026-04-30 19:45 30.23044 -81.67373 31 ft 16 kts 91°
2026-04-30 19:45 30.23043 -81.67242 31 ft 17 kts 88°
2026-04-30 19:45 30.23046 -81.67104 31 ft 17 kts 90°
2026-04-30 19:46 30.23046 -81.66972 31 ft 16 kts 91°
2026-04-30 19:46 30.23044 -81.66840 31 ft 16 kts 90°
2026-04-30 19:46 30.23045 -81.66710 31 ft 16 kts 90°
2026-04-30 19:46 30.23058 -81.66586 31 ft 15 kts 70°
2026-04-30 19:47 30.23077 -81.66479 31 ft 12 kts 90°
2026-04-30 19:47 30.23077 -81.66416 31 ft 11 kts 90°
2026-04-30 19:47 30.23089 -81.66344 31 ft 5 kts 56°
2026-04-30 19:47 30.23105 -81.66320 31 ft 3 kts 39°
2026-04-30 19:48 30.23125 -81.66316 31 ft 3 kts 355°
2026-04-30 19:48 30.23146 -81.66318 31 ft 3 kts 353°
2026-04-30 19:48 30.23156 -81.66324 31 ft 1 kts 320°
2026-04-30 19:48 30.23163 -81.66342 31 ft 3 kts 278°
2026-04-30 19:49 30.23163 -81.66354 31 ft 0 kts 269°
2026-04-30 19:49 30.23162 -81.67222 31 ft 131 kts 271°
2026-04-30 19:49 30.23167 -81.68529 302 ft 176 kts 271°
2026-04-30 19:50 30.23197 -81.69948 1028 ft 179 kts 275°
2026-04-30 19:50 30.23286 -81.71414 1798 ft 188 kts 278°
2026-04-30 19:50 30.23129 -81.72917 2407 ft 194 kts 257°
2026-04-30 19:50 30.22638 -81.74490 3069 ft 223 kts 251°
2026-04-30 19:51 30.22038 -81.76211 3611 ft 237 kts 250°
2026-04-30 19:51 30.21367 -81.77970 4197 ft 241 kts 246°
2026-04-30 19:51 30.20586 -81.79716 4792 ft 246 kts 246°
2026-04-30 19:51 30.19826 -81.81503 5413 ft 249 kts 247°
2026-04-30 19:52 30.19100 -81.83329 6012 ft 251 kts 248°
2026-04-30 19:52 30.18401 -81.85185 6618 ft 253 kts 249°
2026-04-30 19:52 30.17724 -81.87076 7228 ft 255 kts 250°
2026-04-30 19:52 30.17064 -81.88991 7827 ft 257 kts 251°
2026-04-30 19:53 30.16415 -81.90920 8432 ft 259 kts 251°
2026-04-30 19:53 30.15782 -81.92850 9026 ft 262 kts 251°
2026-04-30 19:53 30.15141 -81.94826 9636 ft 263 kts 252°
2026-04-30 19:53 30.14503 -81.96816 10238 ft 265 kts 253°
2026-04-30 19:54 30.13867 -81.98826 10841 ft 268 kts 254°
2026-04-30 19:54 30.13229 -82.00851 11442 ft 269 kts 255°
2026-04-30 19:54 30.12587 -82.02896 12045 ft 271 kts 256°
2026-04-30 19:54 30.11944 -82.04955 12650 ft 275 kts 256°
2026-04-30 19:55 30.11277 -82.07120 13273 ft 298 kts 256°
2026-04-30 19:55 30.10567 -82.09423 13885 ft 315 kts 255°
2026-04-30 19:55 30.09813 -82.11874 14503 ft 324 kts 255°
2026-04-30 19:55 30.09047 -82.14346 15108 ft 330 kts 255°
2026-04-30 19:56 30.08265 -82.16854 15712 ft 334 kts 254°
2026-04-30 19:56 30.07479 -82.19362 16309 ft 338 kts 254°
2026-04-30 19:56 30.06680 -82.21927 16914 ft 341 kts 254°
2026-04-30 19:56 30.05874 -82.24513 17518 ft 343 kts 254°
2026-04-30 19:57 30.05066 -82.27115 18121 ft 346 kts 254°
2026-04-30 19:57 30.04256 -82.29743 18724 ft 348 kts 254°
2026-04-30 19:57 30.03440 -82.32392 19328 ft 351 kts 254°
2026-04-30 19:57 30.02616 -82.35054 19934 ft 353 kts 254°
2026-04-30 19:58 30.01785 -82.37731 20539 ft 355 kts 254°
2026-04-30 19:58 30.00946 -82.40429 21145 ft 358 kts 254°
2026-04-30 19:58 30.00099 -82.43140 21748 ft 360 kts 254°
2026-04-30 19:58 29.99256 -82.45838 22343 ft 363 kts 254°
2026-04-30 19:59 29.98396 -82.48593 22946 ft 366 kts 254°
2026-04-30 19:59 29.97528 -82.51370 23550 ft 369 kts 254°
2026-04-30 19:59 29.95769 -82.56985 24755 ft 375 kts 254°
2026-04-30 20:00 29.94883 -82.59828 25357 ft 378 kts 254°
2026-04-30 20:00 29.93988 -82.62696 25960 ft 381 kts 255°
2026-04-30 20:00 29.93086 -82.65583 26565 ft 384 kts 255°
2026-04-30 20:00 29.92179 -82.68482 26858 ft 395 kts 255°
2026-04-30 20:01 29.90279 -82.74513 26908 ft 401 kts 254°
2026-04-30 20:01 29.89326 -82.77533 26907 ft 401 kts 254°
2026-04-30 20:01 29.88368 -82.80565 26907 ft 403 kts 254°
2026-04-30 20:02 29.86963 -82.85001 26908 ft 408 kts 254°
2026-04-30 20:02 29.86000 -82.88036 26908 ft 410 kts 254°
2026-04-30 20:03 29.84037 -82.94220 26908 ft 412 kts 254°
2026-04-30 20:03 29.83049 -82.97321 26908 ft 412 kts 254°
2026-04-30 20:03 29.82062 -83.00426 26910 ft 412 kts 254°
2026-04-30 20:03 29.81072 -83.03534 26907 ft 412 kts 254°
2026-04-30 20:04 29.80437 -83.05529 26907 ft 412 kts 254°
2026-04-30 20:05 29.79401 -83.08781 26815 ft 402 kts 254°
2026-04-30 20:06 29.78424 -83.11851 26908 ft 414 kts 254°
2026-04-30 20:06 29.77429 -83.14968 26914 ft 415 kts 254°
2026-04-30 20:06 29.76432 -83.18081 26910 ft 414 kts 254°
2026-04-30 20:06 29.75435 -83.21196 26908 ft 414 kts 254°
2026-04-30 20:07 29.74441 -83.24304 26908 ft 413 kts 254°
2026-04-30 20:07 29.73745 -83.26481 26907 ft 413 kts 254°
2026-04-30 20:08 29.73741 -83.26494 26907 ft 413 kts 254°
2026-04-30 20:08 29.72941 -83.28988 26806 ft 402 kts 254°
2026-04-30 20:09 29.71962 -83.32054 26906 ft 413 kts 254°
2026-04-30 20:09 29.70972 -83.35161 26914 ft 414 kts 254°
2026-04-30 20:09 29.68992 -83.41367 26908 ft 412 kts 254°
2026-04-30 20:10 29.67028 -83.47510 26907 ft 411 kts 254°
2026-04-30 20:10 29.66041 -83.50598 26906 ft 411 kts 254°
2026-04-30 20:10 29.65049 -83.53684 26906 ft 411 kts 253°
2026-04-30 20:11 29.63378 -83.58845 26906 ft 411 kts 253°
2026-04-30 20:11 29.62383 -83.61918 26909 ft 410 kts 253°
2026-04-30 20:11 29.61389 -83.64990 26911 ft 410 kts 253°
2026-04-30 20:12 29.59413 -83.71086 26909 ft 409 kts 253°
2026-04-30 20:12 29.58422 -83.74136 26787 ft 403 kts 254°
2026-04-30 20:12 29.57453 -83.77124 26412 ft 396 kts 254°
2026-04-30 20:13 29.56503 -83.80054 25937 ft 387 kts 254°
2026-04-30 20:13 29.55569 -83.82918 25438 ft 379 kts 254°
2026-04-30 20:13 29.54652 -83.85734 24936 ft 373 kts 254°
2026-04-30 20:13 29.53750 -83.88503 24434 ft 368 kts 253°
2026-04-30 20:14 29.52855 -83.91238 23932 ft 364 kts 253°
2026-04-30 20:14 29.51969 -83.93945 23431 ft 360 kts 253°
2026-04-30 20:14 29.51090 -83.96627 22929 ft 357 kts 253°
2026-04-30 20:14 29.50302 -83.99272 22429 ft 351 kts 261°
2026-04-30 20:15 29.50150 -84.02029 21932 ft 344 kts 274°
2026-04-30 20:15 29.50381 -84.04749 21441 ft 341 kts 278°
2026-04-30 20:15 29.50690 -84.07446 20943 ft 339 kts 278°
2026-04-30 20:15 29.51004 -84.10116 20480 ft 336 kts 278°
2026-04-30 20:16 29.51306 -84.12769 20026 ft 334 kts 278°
2026-04-30 20:16 29.51598 -84.15410 19568 ft 333 kts 278°
2026-04-30 20:16 29.51881 -84.18041 19115 ft 331 kts 278°
2026-04-30 20:16 29.52158 -84.20654 18665 ft 329 kts 278°
2026-04-30 20:17 29.52429 -84.23224 18219 ft 327 kts 278°
2026-04-30 20:17 29.52703 -84.25812 17768 ft 326 kts 278°
2026-04-30 20:17 29.52971 -84.28388 17316 ft 324 kts 277°
2026-04-30 20:17 29.53236 -84.30948 16865 ft 322 kts 277°
2026-04-30 20:18 29.53500 -84.33497 16414 ft 320 kts 277°
2026-04-30 20:18 29.53761 -84.36027 15963 ft 318 kts 277°
2026-04-30 20:18 29.54023 -84.38540 15513 ft 316 kts 277°
2026-04-30 20:18 29.54284 -84.41037 15062 ft 314 kts 277°
2026-04-30 20:19 29.54544 -84.43522 14611 ft 312 kts 277°
2026-04-30 20:19 29.54804 -84.45993 14177 ft 310 kts 277°
2026-04-30 20:19 29.55057 -84.48409 14051 ft 301 kts 277°
2026-04-30 20:19 29.55307 -84.50797 14008 ft 301 kts 277°
2026-04-30 20:20 29.55555 -84.53188 13999 ft 302 kts 277°
2026-04-30 20:20 29.55799 -84.55566 13995 ft 304 kts 277°
2026-04-30 20:20 29.56046 -84.57994 13806 ft 308 kts 277°
2026-04-30 20:20 29.56294 -84.60433 13557 ft 305 kts 277°
2026-04-30 20:21 29.56535 -84.62825 13306 ft 299 kts 277°
2026-04-30 20:21 29.56771 -84.65188 13054 ft 296 kts 277°
2026-04-30 20:21 29.57006 -84.67530 12805 ft 294 kts 277°
2026-04-30 20:21 29.57239 -84.69858 12556 ft 292 kts 277°
2026-04-30 20:22 29.57469 -84.72173 12306 ft 291 kts 277°
2026-04-30 20:22 29.57698 -84.74469 12131 ft 288 kts 277°
2026-04-30 20:22 29.57926 -84.76747 12031 ft 286 kts 277°
2026-04-30 20:22 29.58153 -84.79012 12005 ft 285 kts 277°
2026-04-30 20:23 29.58382 -84.81278 12002 ft 286 kts 277°
2026-04-30 20:23 29.58611 -84.83519 12001 ft 286 kts 277°
2026-04-30 20:23 29.58845 -84.85793 12001 ft 287 kts 277°
2026-04-30 20:23 29.59080 -84.88078 12001 ft 287 kts 277°
2026-04-30 20:24 29.59310 -84.90356 12001 ft 287 kts 276°
2026-04-30 20:24 29.59536 -84.92641 12001 ft 287 kts 276°
2026-04-30 20:24 29.59762 -84.94927 12001 ft 287 kts 276°
2026-04-30 20:24 29.59987 -84.97205 12001 ft 287 kts 276°
2026-04-30 20:25 29.60432 -85.01741 12002 ft 287 kts 276°
2026-04-30 20:25 29.60653 -85.04029 12001 ft 287 kts 276°
2026-04-30 20:26 29.61096 -85.08595 12003 ft 288 kts 276°
2026-04-30 20:26 29.61537 -85.13161 12001 ft 287 kts 276°
2026-04-30 20:26 29.61757 -85.15443 12001 ft 288 kts 276°
2026-04-30 20:27 29.62197 -85.20021 12001 ft 288 kts 276°
2026-04-30 20:27 29.62642 -85.24602 12002 ft 288 kts 276°
2026-04-30 20:28 29.63091 -85.29181 12002 ft 288 kts 276°
2026-04-30 20:28 29.63544 -85.33764 12002 ft 288 kts 276°
2026-04-30 20:29 29.63990 -85.38322 12002 ft 288 kts 276°
2026-04-30 20:30 29.64646 -85.45202 12002 ft 288 kts 276°
2026-04-30 20:30 29.65293 -85.52078 12002 ft 288 kts 276°
2026-04-30 20:31 29.65935 -85.58934 12003 ft 288 kts 276°
2026-04-30 20:32 29.66571 -85.65808 12004 ft 288 kts 275°
2026-04-30 20:32 29.66682 -85.69708 12005 ft 288 kts 270°
2026-04-30 20:33 29.66696 -85.72007 12005 ft 287 kts 270°
2026-04-30 20:33 29.66714 -85.76608 12004 ft 287 kts 270°
2026-04-30 20:33 29.66722 -85.78905 12004 ft 287 kts 270°
2026-04-30 20:34 29.66733 -85.83497 12006 ft 287 kts 270°
2026-04-30 20:34 29.66741 -85.88067 12008 ft 287 kts 270°
2026-04-30 20:35 29.66743 -85.90363 12007 ft 287 kts 270°
2026-04-30 20:35 29.66747 -85.92660 12008 ft 287 kts 270°
2026-04-30 20:35 29.66748 -85.97251 12009 ft 287 kts 270°
2026-04-30 20:36 29.66748 -85.99550 12009 ft 287 kts 270°
2026-04-30 20:36 29.66749 -86.01842 12009 ft 287 kts 270°
2026-04-30 20:36 29.66749 -86.06441 12011 ft 288 kts 270°
2026-04-30 20:37 29.66749 -86.08749 12011 ft 288 kts 270°
2026-04-30 20:37 29.66749 -86.11055 12012 ft 288 kts 270°
2026-04-30 20:37 29.66748 -86.13330 12012 ft 288 kts 270°
2026-04-30 20:37 29.66747 -86.15632 12013 ft 288 kts 270°
2026-04-30 20:38 29.66745 -86.17939 12014 ft 288 kts 270°
2026-04-30 20:38 29.66743 -86.20246 12015 ft 288 kts 270°
2026-04-30 20:38 29.66741 -86.22551 12015 ft 288 kts 270°
2026-04-30 20:39 29.66735 -86.27160 12016 ft 288 kts 270°
2026-04-30 20:39 29.66732 -86.29466 12016 ft 288 kts 270°
2026-04-30 20:39 29.66728 -86.31771 12017 ft 288 kts 270°
2026-04-30 20:40 29.66720 -86.36379 12020 ft 288 kts 270°
2026-04-30 20:40 29.66717 -86.38684 12022 ft 289 kts 270°
2026-04-30 20:40 29.66714 -86.40967 12022 ft 289 kts 270°
2026-04-30 20:41 29.66710 -86.45600 12022 ft 289 kts 270°
2026-04-30 20:41 29.66708 -86.47911 12023 ft 289 kts 270°
2026-04-30 20:41 29.66708 -86.50221 12025 ft 289 kts 270°
2026-04-30 20:41 29.66707 -86.52533 12025 ft 289 kts 270°
2026-04-30 20:42 29.66707 -86.54844 12024 ft 289 kts 270°
2026-04-30 20:42 29.66704 -86.57159 12025 ft 290 kts 270°
2026-04-30 20:42 29.66693 -86.61796 12026 ft 290 kts 270°
2026-04-30 20:43 29.66685 -86.64114 12025 ft 290 kts 270°
2026-04-30 20:43 29.66678 -86.66434 12025 ft 290 kts 270°
2026-04-30 20:43 29.66676 -86.68752 12031 ft 290 kts 270°
2026-04-30 20:44 29.66685 -86.73367 12031 ft 291 kts 270°
2026-04-30 20:44 29.66692 -86.75695 12031 ft 291 kts 270°
2026-04-30 20:44 29.66708 -86.80352 12030 ft 291 kts 270°
2026-04-30 20:45 29.66717 -86.85008 12025 ft 291 kts 270°
2026-04-30 20:45 29.66719 -86.87338 12024 ft 291 kts 270°
2026-04-30 20:45 29.66721 -86.89670 12025 ft 292 kts 270°
2026-04-30 20:46 29.66720 -86.96681 12024 ft 292 kts 270°
2026-04-30 20:46 29.66719 -86.99018 12025 ft 292 kts 270°
2026-04-30 20:47 29.66716 -87.03700 12024 ft 292 kts 270°
2026-04-30 20:47 29.66714 -87.06039 12026 ft 293 kts 270°
2026-04-30 20:48 29.66708 -87.10689 12031 ft 293 kts 270°
2026-04-30 20:48 29.66704 -87.13035 12033 ft 293 kts 270°
2026-04-30 20:48 29.66700 -87.15384 12032 ft 293 kts 270°
2026-04-30 20:48 29.66696 -87.17726 12034 ft 293 kts 270°
2026-04-30 20:49 29.66690 -87.20071 12031 ft 293 kts 270°
2026-04-30 20:49 29.66685 -87.22422 12027 ft 293 kts 270°
2026-04-30 20:49 29.66679 -87.24770 12026 ft 293 kts 270°
2026-04-30 20:50 29.66667 -87.29461 12025 ft 293 kts 270°
2026-04-30 20:50 29.66658 -87.31814 12026 ft 294 kts 270°
2026-04-30 20:50 29.66656 -87.34142 12030 ft 294 kts 270°
2026-04-30 20:50 29.66669 -87.36491 12031 ft 294 kts 270°
2026-04-30 20:51 29.66680 -87.38841 12031 ft 294 kts 270°
2026-04-30 20:51 29.66697 -87.43546 12031 ft 294 kts 270°
2026-04-30 20:51 29.66703 -87.45901 12032 ft 294 kts 270°
2026-04-30 20:52 29.66709 -87.48255 12031 ft 294 kts 270°
2026-04-30 20:52 29.66714 -87.50607 12031 ft 294 kts 270°
2026-04-30 20:52 29.66721 -87.55315 12031 ft 294 kts 270°
2026-04-30 20:53 29.66725 -87.57671 12031 ft 294 kts 270°
2026-04-30 20:53 29.66728 -87.60028 12031 ft 294 kts 270°
2026-04-30 20:53 29.66730 -87.62383 12031 ft 294 kts 270°
2026-04-30 20:54 29.66733 -87.67057 12031 ft 294 kts 270°
2026-04-30 20:54 29.66734 -87.69409 12030 ft 294 kts 270°
2026-04-30 20:54 29.66735 -87.71760 12029 ft 294 kts 270°
2026-04-30 20:55 29.66735 -87.76465 12029 ft 294 kts 270°
2026-04-30 20:55 29.66735 -87.78818 12029 ft 294 kts 270°
2026-04-30 20:55 29.66735 -87.81170 12030 ft 294 kts 270°
2026-04-30 20:56 29.66735 -87.85880 12028 ft 294 kts 270°
2026-04-30 20:56 29.66735 -87.88231 12029 ft 294 kts 270°
2026-04-30 20:56 29.66739 -87.92935 12032 ft 294 kts 270°
2026-04-30 20:57 29.66741 -87.95285 12032 ft 292 kts 270°
2026-04-30 20:57 29.66743 -87.96817 12030 ft 287 kts 270°
2026-04-30 20:57 29.66748 -87.99808 12031 ft 279 kts 270°
2026-04-30 20:58 29.66753 -88.04237 11998 ft 275 kts 270°
2026-04-30 20:58 29.66751 -88.06431 11993 ft 274 kts 270°
2026-04-30 20:58 29.66747 -88.08617 11993 ft 273 kts 270°
2026-04-30 20:58 29.66745 -88.10067 11992 ft 273 kts 270°
2026-04-30 20:59 29.66734 -88.14428 11992 ft 273 kts 270°
2026-04-30 20:59 29.66728 -88.16608 11992 ft 273 kts 270°
2026-04-30 21:00 29.66717 -88.20971 11993 ft 273 kts 270°
2026-04-30 21:00 29.66703 -88.25333 11991 ft 273 kts 270°
2026-04-30 21:01 29.66178 -88.29577 11985 ft 275 kts 244°
2026-04-30 21:01 29.64920 -88.31239 11988 ft 282 kts 220°
2026-04-30 21:01 29.61086 -88.32474 12003 ft 296 kts 190°
2026-04-30 21:02 29.59022 -88.32635 11993 ft 298 kts 188°
2026-04-30 21:02 29.56950 -88.32727 11990 ft 298 kts 186°
2026-04-30 21:02 29.54883 -88.32827 11991 ft 297 kts 188°
2026-04-30 21:02 29.52813 -88.32962 11990 ft 298 kts 188°
2026-04-30 21:03 29.50739 -88.33069 11988 ft 298 kts 187°
2026-04-30 21:03 29.48664 -88.33147 11988 ft 298 kts 186°
2026-04-30 21:03 29.46588 -88.33200 11979 ft 299 kts 186°
2026-04-30 21:03 29.44509 -88.33232 11978 ft 299 kts 185°
2026-04-30 21:04 29.42433 -88.33255 11978 ft 299 kts 185°
2026-04-30 21:04 29.40349 -88.33274 11977 ft 299 kts 185°
2026-04-30 21:04 29.36264 -88.32402 11976 ft 311 kts 153°
2026-04-30 21:05 29.34645 -88.30728 11979 ft 319 kts 129°
2026-04-30 21:05 29.33683 -88.28471 11980 ft 323 kts 106°
2026-04-30 21:05 29.33386 -88.25922 11997 ft 324 kts 93°
2026-04-30 21:05 29.33334 -88.23331 11989 ft 325 kts 90°
2026-04-30 21:06 29.33333 -88.20737 11988 ft 329 kts 90°
2026-04-30 21:06 29.33346 -88.18054 11992 ft 341 kts 89°
2026-04-30 21:06 29.33357 -88.15300 11989 ft 350 kts 89°
2026-04-30 21:06 29.33363 -88.12493 11988 ft 354 kts 90°
2026-04-30 21:07 29.33366 -88.09668 11987 ft 356 kts 90°
2026-04-30 21:07 29.33367 -88.06824 11986 ft 357 kts 90°
2026-04-30 21:07 29.33367 -88.04013 11986 ft 358 kts 90°
2026-04-30 21:07 29.33366 -88.02063 11991 ft 358 kts 90°
2026-04-30 21:08 29.33364 -87.99206 11998 ft 359 kts 90°
2026-04-30 21:08 29.33360 -87.96347 12000 ft 359 kts 90°
2026-04-30 21:08 29.33355 -87.93483 12001 ft 360 kts 90°
2026-04-30 21:08 29.33351 -87.90612 12001 ft 360 kts 90°
2026-04-30 21:09 29.33347 -87.87744 12001 ft 360 kts 90°
2026-04-30 21:09 29.33343 -87.84872 12001 ft 360 kts 90°
2026-04-30 21:09 29.33339 -87.82004 12001 ft 360 kts 90°
2026-04-30 21:09 29.33337 -87.80002 12001 ft 360 kts 90°
2026-04-30 21:10 29.33334 -87.77123 12001 ft 360 kts 90°
2026-04-30 21:10 29.33332 -87.75016 12001 ft 360 kts 90°
2026-04-30 21:10 29.33331 -87.72282 12001 ft 360 kts 90°
2026-04-30 21:10 29.33329 -87.69407 12001 ft 360 kts 90°
2026-04-30 21:11 29.33329 -87.66533 12001 ft 360 kts 90°
2026-04-30 21:11 29.33329 -87.63665 12000 ft 360 kts 90°
2026-04-30 21:11 29.33331 -87.60793 12000 ft 360 kts 90°
2026-04-30 21:11 29.33331 -87.60302 12000 ft 360 kts 90°
2026-04-30 21:12 29.33332 -87.58897 12000 ft 360 kts 90°
2026-04-30 21:12 29.33335 -87.56027 11999 ft 360 kts 90°
2026-04-30 21:12 29.33338 -87.53187 11997 ft 360 kts 90°
2026-04-30 21:12 29.33341 -87.50316 11999 ft 360 kts 90°
2026-04-30 21:13 29.33344 -87.47439 11998 ft 360 kts 90°
2026-04-30 21:13 29.33347 -87.44562 11997 ft 360 kts 90°
2026-04-30 21:13 29.33350 -87.41691 11997 ft 360 kts 90°
2026-04-30 21:13 29.33354 -87.38816 11996 ft 361 kts 90°
2026-04-30 21:14 29.33359 -87.35938 11998 ft 361 kts 90°
2026-04-30 21:14 29.33363 -87.33061 11998 ft 361 kts 90°
2026-04-30 21:14 29.33369 -87.30220 12000 ft 361 kts 90°
2026-04-30 21:14 29.33376 -87.27332 12001 ft 361 kts 90°
2026-04-30 21:15 29.33381 -87.24451 11999 ft 361 kts 90°
2026-04-30 21:15 29.33382 -87.21569 12001 ft 361 kts 90°
2026-04-30 21:15 29.33379 -87.18686 11998 ft 361 kts 90°
2026-04-30 21:15 29.33374 -87.15804 11999 ft 361 kts 90°
2026-04-30 21:16 29.33368 -87.12926 11998 ft 362 kts 90°
2026-04-30 21:16 29.33362 -87.10040 11998 ft 361 kts 90°
2026-04-30 21:16 29.33354 -87.07189 11997 ft 362 kts 90°
2026-04-30 21:16 29.33347 -87.04312 11996 ft 362 kts 90°
2026-04-30 21:17 29.33338 -87.01425 11996 ft 362 kts 90°
2026-04-30 21:17 29.33335 -86.98537 11996 ft 362 kts 90°
2026-04-30 21:17 29.33342 -86.95650 11995 ft 362 kts 89°
2026-04-30 21:17 29.33355 -86.92762 11995 ft 362 kts 89°
2026-04-30 21:18 29.33364 -86.89867 11995 ft 362 kts 90°
2026-04-30 21:18 29.33369 -86.86979 11994 ft 362 kts 90°
2026-04-30 21:18 29.33372 -86.84086 11994 ft 362 kts 90°
2026-04-30 21:18 29.33375 -86.81198 11992 ft 362 kts 90°
2026-04-30 21:19 29.33375 -86.78310 11993 ft 363 kts 90°
2026-04-30 21:19 29.33376 -86.75449 11993 ft 363 kts 90°
2026-04-30 21:19 29.33375 -86.72554 11993 ft 363 kts 90°
2026-04-30 21:19 29.33374 -86.69657 11992 ft 363 kts 90°
2026-04-30 21:20 29.33372 -86.66753 11992 ft 363 kts 90°
2026-04-30 21:20 29.33370 -86.63849 11997 ft 363 kts 90°
2026-04-30 21:20 29.33366 -86.60956 12000 ft 363 kts 90°
2026-04-30 21:20 29.33363 -86.58053 12000 ft 364 kts 90°
2026-04-30 21:21 29.33359 -86.55150 12000 ft 364 kts 90°
2026-04-30 21:21 29.33354 -86.52286 12001 ft 364 kts 90°
2026-04-30 21:21 29.33342 -86.46472 12000 ft 364 kts 90°
2026-04-30 21:22 29.33335 -86.43570 11997 ft 364 kts 90°
2026-04-30 21:22 29.33312 -86.34859 11995 ft 365 kts 90°
2026-04-30 21:23 29.33314 -86.31939 11995 ft 365 kts 89°
2026-04-30 21:23 29.33332 -86.29028 11991 ft 365 kts 89°
2026-04-30 21:23 29.33353 -86.24682 11994 ft 365 kts 89°
2026-04-30 21:24 29.33362 -86.21770 11994 ft 365 kts 90°
2026-04-30 21:24 29.33368 -86.18858 11993 ft 365 kts 90°
2026-04-30 21:24 29.33375 -86.15946 11993 ft 365 kts 90°
2026-04-30 21:24 29.33379 -86.13027 11992 ft 365 kts 90°
2026-04-30 21:25 29.33386 -86.07236 11992 ft 365 kts 90°
2026-04-30 21:25 29.33390 -86.04319 11991 ft 365 kts 90°
2026-04-30 21:25 29.33392 -86.01400 11991 ft 365 kts 90°
2026-04-30 21:26 29.33398 -85.95572 11990 ft 366 kts 90°
2026-04-30 21:26 29.33400 -85.92653 11991 ft 366 kts 90°
2026-04-30 21:27 29.33401 -85.86807 11989 ft 367 kts 89°
2026-04-30 21:27 29.33402 -85.83876 11989 ft 367 kts 90°
2026-04-30 21:27 29.33401 -85.80949 11989 ft 367 kts 90°
2026-04-30 21:28 29.33399 -85.75100 11985 ft 367 kts 90°
2026-04-30 21:28 29.33398 -85.72170 11984 ft 367 kts 90°
2026-04-30 21:28 29.33399 -85.66347 11984 ft 367 kts 90°
2026-04-30 21:29 29.33400 -85.63418 11981 ft 367 kts 89°
2026-04-30 21:29 29.33405 -85.54621 11975 ft 367 kts 90°
2026-04-30 21:30 29.33396 -85.48764 11973 ft 367 kts 90°
2026-04-30 21:31 29.33344 -85.40321 11962 ft 341 kts 94°
2026-04-30 21:31 29.31437 -85.35582 11971 ft 326 kts 140°
2026-04-30 21:32 29.27491 -85.33658 11986 ft 304 kts 180°
2026-04-30 21:32 29.25385 -85.33507 11979 ft 303 kts 184°
2026-04-30 21:32 29.23280 -85.33444 11974 ft 302 kts 185°
2026-04-30 21:32 29.21177 -85.33408 11972 ft 302 kts 186°
2026-04-30 21:33 29.19077 -85.33388 11972 ft 301 kts 186°
2026-04-30 21:33 29.14881 -85.33370 11972 ft 301 kts 186°
2026-04-30 21:33 29.12808 -85.33366 11972 ft 301 kts 186°
2026-04-30 21:34 29.10704 -85.33363 11972 ft 301 kts 186°
2026-04-30 21:34 29.06516 -85.33362 11972 ft 301 kts 186°
2026-04-30 21:34 29.04453 -85.33570 11963 ft 292 kts 201°
2026-04-30 21:35 29.02701 -85.34600 11971 ft 279 kts 225°
2026-04-30 21:35 29.01541 -85.36310 11973 ft 271 kts 248°
2026-04-30 21:35 29.01033 -85.38359 11988 ft 268 kts 261°
2026-04-30 21:35 29.00760 -85.40476 11978 ft 272 kts 264°
2026-04-30 21:36 29.00565 -85.42674 11983 ft 284 kts 266°
2026-04-30 21:36 29.00417 -85.44965 11981 ft 293 kts 267°
2026-04-30 21:37 29.00179 -85.52035 11976 ft 300 kts 269°
2026-04-30 21:37 29.00138 -85.54424 11976 ft 301 kts 269°
2026-04-30 21:37 29.00107 -85.56819 11975 ft 301 kts 270°
2026-04-30 21:37 29.00089 -85.59214 11977 ft 301 kts 270°
2026-04-30 21:38 29.00078 -85.61613 11975 ft 302 kts 270°
2026-04-30 21:38 29.00069 -85.64010 11978 ft 302 kts 270°
2026-04-30 21:38 29.00062 -85.66383 11978 ft 302 kts 270°
2026-04-30 21:38 29.00056 -85.68784 11980 ft 302 kts 270°
2026-04-30 21:39 29.00052 -85.71181 11979 ft 302 kts 270°
2026-04-30 21:39 29.00048 -85.73582 11979 ft 302 kts 270°
2026-04-30 21:39 29.00044 -85.75989 11979 ft 302 kts 270°
2026-04-30 21:39 29.00041 -85.78360 11979 ft 302 kts 270°
2026-04-30 21:40 29.00036 -85.80787 11978 ft 302 kts 270°
2026-04-30 21:40 29.00032 -85.83157 11984 ft 302 kts 270°
2026-04-30 21:40 29.00027 -85.85560 11985 ft 302 kts 270°
2026-04-30 21:40 29.00022 -85.87961 11988 ft 302 kts 270°
2026-04-30 21:41 29.00016 -85.90359 11991 ft 302 kts 270°
2026-04-30 21:41 29.00010 -85.92758 11992 ft 302 kts 270°
2026-04-30 21:41 29.00004 -85.95159 11992 ft 302 kts 270°
2026-04-30 21:41 28.99997 -85.97556 11992 ft 302 kts 270°
2026-04-30 21:42 28.99991 -85.99957 11992 ft 302 kts 270°
2026-04-30 21:42 28.99996 -86.02356 11992 ft 302 kts 270°
2026-04-30 21:42 29.00001 -86.04759 11993 ft 303 kts 270°
2026-04-30 21:42 29.00005 -86.07169 11993 ft 303 kts 270°
2026-04-30 21:43 29.00008 -86.09578 11993 ft 303 kts 270°
2026-04-30 21:43 29.00010 -86.11178 11993 ft 304 kts 270°
2026-04-30 21:43 29.00013 -86.14376 11990 ft 304 kts 270°
2026-04-30 21:43 29.00014 -86.16792 11994 ft 304 kts 270°
2026-04-30 21:44 29.00016 -86.19205 11994 ft 304 kts 270°
2026-04-30 21:44 29.00016 -86.21622 11994 ft 304 kts 270°
2026-04-30 21:44 29.00017 -86.24039 11994 ft 304 kts 270°
2026-04-30 21:44 29.00017 -86.26454 11994 ft 304 kts 270°
2026-04-30 21:45 29.00017 -86.28870 11994 ft 304 kts 270°
2026-04-30 21:45 29.00016 -86.31286 11994 ft 304 kts 270°
2026-04-30 21:45 29.00016 -86.33702 11995 ft 304 kts 270°
2026-04-30 21:45 29.00016 -86.35305 11995 ft 305 kts 270°
2026-04-30 21:46 29.00016 -86.37730 11995 ft 305 kts 270°
2026-04-30 21:46 29.00017 -86.40150 11994 ft 305 kts 270°
2026-04-30 21:46 29.00019 -86.42570 11993 ft 305 kts 270°
2026-04-30 21:46 29.00021 -86.44993 11993 ft 305 kts 270°
2026-04-30 21:47 29.00024 -86.47413 11993 ft 305 kts 270°
2026-04-30 21:47 29.00028 -86.49837 11999 ft 305 kts 270°
2026-04-30 21:47 29.00032 -86.52258 12001 ft 305 kts 270°
2026-04-30 21:47 29.00033 -86.54655 12003 ft 305 kts 270°
2026-04-30 21:48 29.00031 -86.57081 12002 ft 305 kts 270°
2026-04-30 21:48 29.00027 -86.59506 12003 ft 305 kts 270°
2026-04-30 21:48 29.00022 -86.61926 12003 ft 305 kts 270°
2026-04-30 21:48 29.00016 -86.64350 12002 ft 305 kts 270°
2026-04-30 21:49 29.00011 -86.66773 12002 ft 305 kts 270°
2026-04-30 21:49 29.00013 -86.69170 12001 ft 305 kts 270°
2026-04-30 21:49 29.00019 -86.71591 11997 ft 305 kts 270°
2026-04-30 21:49 29.00027 -86.74012 11997 ft 305 kts 270°
2026-04-30 21:50 29.00035 -86.76444 11997 ft 305 kts 270°
2026-04-30 21:50 29.00040 -86.78871 11997 ft 306 kts 270°
2026-04-30 21:50 29.00044 -86.81299 11995 ft 306 kts 270°
2026-04-30 21:50 29.00046 -86.83724 11997 ft 306 kts 270°
2026-04-30 21:51 29.00048 -86.86159 11997 ft 306 kts 270°
2026-04-30 21:51 29.00049 -86.88562 11997 ft 306 kts 270°
2026-04-30 21:51 29.00049 -86.90991 11998 ft 306 kts 270°
2026-04-30 21:51 29.00049 -86.93417 11999 ft 305 kts 270°
2026-04-30 21:52 29.00048 -86.95842 11997 ft 306 kts 270°
2026-04-30 21:52 29.00047 -86.98272 11997 ft 306 kts 270°
2026-04-30 21:52 29.00046 -87.00700 11997 ft 306 kts 270°
2026-04-30 21:52 29.00044 -87.03129 11997 ft 306 kts 270°
2026-04-30 21:53 29.00041 -87.05565 11997 ft 306 kts 270°
2026-04-30 21:53 29.00039 -87.08000 11997 ft 306 kts 270°
2026-04-30 21:53 29.00035 -87.10432 11998 ft 306 kts 270°
2026-04-30 21:53 29.00032 -87.12869 11997 ft 307 kts 270°
2026-04-30 21:54 29.00028 -87.15304 11997 ft 307 kts 270°
2026-04-30 21:54 29.00023 -87.17717 11994 ft 298 kts 270°
2026-04-30 21:54 29.00018 -87.20019 11989 ft 281 kts 270°
2026-04-30 21:54 29.00014 -87.22214 11994 ft 274 kts 270°
2026-04-30 21:55 29.00009 -87.24365 11999 ft 274 kts 270°
2026-04-30 21:55 29.00003 -87.26545 12000 ft 274 kts 270°
2026-04-30 21:55 29.00000 -87.27784 12000 ft 274 kts 270°
2026-04-30 21:55 28.99960 -87.29955 11994 ft 273 kts 264°
2026-04-30 21:56 28.99341 -87.32003 11996 ft 276 kts 240°
2026-04-30 21:56 28.98156 -87.33746 12012 ft 279 kts 233°
2026-04-30 21:56 28.96858 -87.35406 12005 ft 281 kts 229°
2026-04-30 21:56 28.95456 -87.36981 11999 ft 282 kts 227°
2026-04-30 21:57 28.94021 -87.38509 11999 ft 282 kts 226°
2026-04-30 21:57 28.92580 -87.40033 11998 ft 282 kts 227°
2026-04-30 21:57 28.91201 -87.41582 11998 ft 282 kts 228°
2026-04-30 21:57 28.89793 -87.43143 11999 ft 282 kts 227°
2026-04-30 21:58 28.88369 -87.44685 11998 ft 282 kts 226°
2026-04-30 21:58 28.86926 -87.46210 12000 ft 282 kts 226°
2026-04-30 21:58 28.85470 -87.47730 11999 ft 283 kts 226°
2026-04-30 21:58 28.84008 -87.49238 11999 ft 283 kts 225°
2026-04-30 21:59 28.82538 -87.50737 11999 ft 283 kts 225°
2026-04-30 21:59 28.81063 -87.52227 11999 ft 283 kts 225°
2026-04-30 21:59 28.79583 -87.53715 12000 ft 283 kts 225°
2026-04-30 22:00 28.76638 -87.56667 12000 ft 284 kts 225°
2026-04-30 22:00 28.73671 -87.59647 12001 ft 284 kts 225°
2026-04-30 22:00 28.72190 -87.61137 12001 ft 284 kts 225°
2026-04-30 22:01 28.70705 -87.62621 11999 ft 284 kts 223°
2026-04-30 22:01 28.68955 -87.63701 11996 ft 292 kts 200°
2026-04-30 22:01 28.66914 -87.63888 12002 ft 302 kts 177°
2026-04-30 22:01 28.64906 -87.63121 12003 ft 311 kts 153°
2026-04-30 22:02 28.63271 -87.61501 12002 ft 317 kts 130°
2026-04-30 22:02 28.62270 -87.59248 12002 ft 321 kts 107°
2026-04-30 22:02 28.62078 -87.56720 12001 ft 322 kts 83°
2026-04-30 22:02 28.62720 -87.54304 12007 ft 319 kts 61°
2026-04-30 22:03 28.63750 -87.52100 12012 ft 321 kts 61°
2026-04-30 22:03 28.64648 -87.49761 12003 ft 323 kts 68°
2026-04-30 22:03 28.65308 -87.47316 12002 ft 323 kts 75°
2026-04-30 22:03 28.65768 -87.44808 12000 ft 324 kts 79°
2026-04-30 22:04 28.66081 -87.42267 11997 ft 324 kts 83°
2026-04-30 22:04 28.66291 -87.39710 11996 ft 324 kts 85°
2026-04-30 22:04 28.66523 -87.34580 11995 ft 325 kts 88°
2026-04-30 22:05 28.66583 -87.32005 11995 ft 325 kts 88°
2026-04-30 22:05 28.66624 -87.29460 11995 ft 325 kts 89°
2026-04-30 22:05 28.66644 -87.26885 11995 ft 325 kts 89°
2026-04-30 22:05 28.66655 -87.24297 11997 ft 331 kts 90°
2026-04-30 22:06 28.66663 -87.21631 12001 ft 342 kts 90°
2026-04-30 22:06 28.66677 -87.16077 11997 ft 355 kts 90°
2026-04-30 22:06 28.66685 -87.13254 11996 ft 356 kts 90°
2026-04-30 22:07 28.66690 -87.10425 11996 ft 358 kts 90°
2026-04-30 22:07 28.66688 -87.07626 11995 ft 359 kts 90°
2026-04-30 22:07 28.66684 -87.04783 11995 ft 359 kts 90°
2026-04-30 22:07 28.66676 -87.01928 11995 ft 360 kts 90°
2026-04-30 22:08 28.66672 -86.99083 11996 ft 360 kts 90°
2026-04-30 22:08 28.66677 -86.96233 11995 ft 360 kts 90°
2026-04-30 22:08 28.66687 -86.93376 11995 ft 360 kts 89°
2026-04-30 22:08 28.66700 -86.90524 11995 ft 360 kts 89°
2026-04-30 22:09 28.66713 -86.87703 11995 ft 360 kts 89°
2026-04-30 22:09 28.66726 -86.84849 11995 ft 361 kts 89°
2026-04-30 22:09 28.66736 -86.81993 11995 ft 361 kts 90°
2026-04-30 22:09 28.66742 -86.79133 11995 ft 361 kts 90°
2026-04-30 22:10 28.66747 -86.76277 11995 ft 361 kts 90°
2026-04-30 22:10 28.66750 -86.73419 11995 ft 361 kts 90°
2026-04-30 22:10 28.66753 -86.70560 11994 ft 361 kts 90°
2026-04-30 22:10 28.66755 -86.67697 11992 ft 361 kts 90°
2026-04-30 22:11 28.66757 -86.61982 11992 ft 361 kts 90°
2026-04-30 22:11 28.66758 -86.59123 11988 ft 361 kts 90°
2026-04-30 22:11 28.66757 -86.56260 11990 ft 361 kts 90°
2026-04-30 22:12 28.66756 -86.53400 11990 ft 361 kts 90°
2026-04-30 22:12 28.66755 -86.51527 11993 ft 362 kts 90°
2026-04-30 22:12 28.66753 -86.48698 11992 ft 362 kts 90°
2026-04-30 22:12 28.66750 -86.45827 11992 ft 362 kts 90°
2026-04-30 22:13 28.66747 -86.42962 11993 ft 362 kts 90°
2026-04-30 22:13 28.66743 -86.40095 11992 ft 362 kts 90°
2026-04-30 22:13 28.66741 -86.37228 11992 ft 362 kts 90°
2026-04-30 22:13 28.66738 -86.34353 11991 ft 362 kts 90°
2026-04-30 22:14 28.66733 -86.31484 11991 ft 362 kts 90°
2026-04-30 22:14 28.66727 -86.28614 11989 ft 362 kts 90°
2026-04-30 22:14 28.66720 -86.25742 11991 ft 362 kts 90°
2026-04-30 22:14 28.66713 -86.22874 11991 ft 362 kts 90°
2026-04-30 22:15 28.66705 -86.20006 11991 ft 362 kts 90°
2026-04-30 22:15 28.66696 -86.17135 11991 ft 362 kts 90°
2026-04-30 22:15 28.66687 -86.14269 11991 ft 362 kts 90°
2026-04-30 22:15 28.66678 -86.11398 11989 ft 362 kts 90°
2026-04-30 22:16 28.66670 -86.08561 11988 ft 362 kts 90°
2026-04-30 22:16 28.66662 -86.05691 11986 ft 362 kts 90°
2026-04-30 22:17 28.66665 -85.97081 11982 ft 362 kts 89°
2026-04-30 22:17 28.66679 -85.94209 11985 ft 363 kts 89°
2026-04-30 22:17 28.66696 -85.88459 11984 ft 363 kts 89°
2026-04-30 22:18 28.66703 -85.85581 11985 ft 363 kts 89°
2026-04-30 22:18 28.66713 -85.79830 11984 ft 363 kts 89°
2026-04-30 22:19 28.66720 -85.74109 11986 ft 364 kts 90°
2026-04-30 22:19 28.66724 -85.71219 11986 ft 364 kts 90°
2026-04-30 22:19 28.66727 -85.65453 11985 ft 364 kts 90°
2026-04-30 22:20 28.66728 -85.62568 11985 ft 364 kts 90°
2026-04-30 22:20 28.66731 -85.56796 11985 ft 364 kts 90°
2026-04-30 22:20 28.66733 -85.53908 11980 ft 364 kts 90°
2026-04-30 22:21 28.66736 -85.51024 11985 ft 364 kts 90°
2026-04-30 22:21 28.66740 -85.48179 11985 ft 364 kts 89°
2026-04-30 22:21 28.66744 -85.45254 11984 ft 364 kts 89°
2026-04-30 22:21 28.66749 -85.42371 11984 ft 364 kts 89°
2026-04-30 22:22 28.66754 -85.39488 11984 ft 364 kts 89°
2026-04-30 22:22 28.66758 -85.36643 11984 ft 364 kts 89°
2026-04-30 22:22 28.66761 -85.33753 11984 ft 365 kts 89°
2026-04-30 22:22 28.66760 -85.30862 11984 ft 365 kts 90°
2026-04-30 22:23 28.66756 -85.27973 11984 ft 365 kts 90°
2026-04-30 22:23 28.66750 -85.25083 11984 ft 365 kts 90°
2026-04-30 22:23 28.66743 -85.22187 11984 ft 365 kts 90°
2026-04-30 22:23 28.66735 -85.19295 11984 ft 365 kts 90°
2026-04-30 22:24 28.66726 -85.16407 11982 ft 365 kts 90°
2026-04-30 22:24 28.66716 -85.13517 11984 ft 365 kts 90°
2026-04-30 22:24 28.66706 -85.10630 11984 ft 365 kts 90°
2026-04-30 22:24 28.66695 -85.07765 11985 ft 365 kts 90°
2026-04-30 22:25 28.66684 -85.04877 11984 ft 365 kts 90°
2026-04-30 22:25 28.66673 -85.01986 11983 ft 365 kts 89°
2026-04-30 22:25 28.66973 -84.99136 11986 ft 362 kts 74°
2026-04-30 22:25 28.67754 -84.96407 11990 ft 363 kts 67°
2026-04-30 22:26 28.69601 -84.91061 11982 ft 362 kts 66°
2026-04-30 22:26 28.70527 -84.88391 11981 ft 362 kts 66°
2026-04-30 22:26 28.71448 -84.85721 11981 ft 362 kts 66°
2026-04-30 22:27 28.72366 -84.83052 12075 ft 359 kts 66°
2026-04-30 22:27 28.73267 -84.80412 12324 ft 357 kts 66°
2026-04-30 22:27 28.75056 -84.75148 13295 ft 359 kts 66°
2026-04-30 22:28 28.76870 -84.69768 14302 ft 366 kts 66°
2026-04-30 22:28 28.77779 -84.67041 14804 ft 370 kts 66°
2026-04-30 22:29 28.80555 -84.58718 16310 ft 379 kts 65°
2026-04-30 22:29 28.81502 -84.55903 16812 ft 382 kts 65°
2026-04-30 22:30 28.85323 -84.44442 18814 ft 394 kts 65°
2026-04-30 22:31 28.88266 -84.35565 20318 ft 404 kts 65°
2026-04-30 22:32 28.91300 -84.26447 21836 ft 415 kts 65°
2026-04-30 22:32 28.93347 -84.20258 22841 ft 423 kts 65°
2026-04-30 22:33 28.96499 -84.10681 24348 ft 435 kts 65°
2026-04-30 22:33 28.98642 -84.04155 25354 ft 442 kts 65°
2026-04-30 22:34 29.02590 -83.94624 26789 ft 446 kts 52°
2026-04-30 22:35 29.06027 -83.88687 26909 ft 453 kts 51°
2026-04-30 22:36 29.12244 -83.77539 26905 ft 454 kts 52°
2026-04-30 22:36 29.13911 -83.74471 26903 ft 454 kts 53°
2026-04-30 22:37 29.18910 -83.65252 26900 ft 454 kts 53°
2026-04-30 22:37 29.20572 -83.62177 26900 ft 455 kts 53°
2026-04-30 22:37 29.23905 -83.56014 26899 ft 455 kts 53°
2026-04-30 22:38 29.27233 -83.49834 26898 ft 456 kts 53°
2026-04-30 22:38 29.30558 -83.43655 26897 ft 456 kts 53°
2026-04-30 22:39 29.32221 -83.40561 26897 ft 456 kts 53°
2026-04-30 22:39 29.37198 -83.31289 26898 ft 456 kts 53°
2026-04-30 22:40 29.42188 -83.21978 26895 ft 456 kts 53°
2026-04-30 22:41 29.47164 -83.12677 26891 ft 456 kts 53°
2026-04-30 22:41 29.50459 -83.06519 26889 ft 456 kts 53°
2026-04-30 22:42 29.57161 -82.94003 25297 ft 456 kts 53°
2026-04-30 22:43 29.60434 -82.87838 24295 ft 448 kts 53°
2026-04-30 22:43 29.63655 -82.81757 23293 ft 442 kts 53°
2026-04-30 22:44 29.66824 -82.75762 22291 ft 435 kts 53°
2026-04-30 22:45 29.72016 -82.65923 20617 ft 422 kts 53°
2026-04-30 22:45 29.75035 -82.60210 19621 ft 414 kts 53°
2026-04-30 22:46 29.78009 -82.54606 18618 ft 406 kts 53°
2026-04-30 22:47 29.83748 -82.43727 16628 ft 388 kts 53°
2026-04-30 22:47 29.86445 -82.38590 15620 ft 362 kts 53°
2026-04-30 22:48 29.88970 -82.33752 14612 ft 343 kts 53°
2026-04-30 22:49 29.92567 -82.26898 13110 ft 325 kts 52°
2026-04-30 22:49 29.96008 -82.20334 11607 ft 313 kts 53°
2026-04-30 22:50 30.00397 -82.11928 10272 ft 304 kts 54°
2026-04-30 22:51 30.02550 -82.07789 9626 ft 302 kts 55°
2026-04-30 22:51 30.04707 -82.03645 8976 ft 301 kts 56°
2026-04-30 22:52 30.05789 -82.01570 8650 ft 300 kts 56°
2026-04-30 22:52 30.07339 -81.98599 8167 ft 290 kts 56°
2026-04-30 22:53 30.08013 -81.97307 7953 ft 285 kts 56°
2026-04-30 22:53 30.10004 -81.93474 7297 ft 272 kts 56°
2026-04-30 22:53 30.10970 -81.91617 6965 ft 267 kts 56°
2026-04-30 22:54 30.12850 -81.88012 6318 ft 259 kts 56°
2026-04-30 22:55 30.14790 -81.82353 5344 ft 252 kts 82°
2026-04-30 22:55 30.14957 -81.78531 5041 ft 233 kts 88°
2026-04-30 22:56 30.15010 -81.75363 5009 ft 234 kts 88°
2026-04-30 22:56 30.15092 -81.69684 5000 ft 237 kts 88°
2026-04-30 22:57 30.15149 -81.65846 4820 ft 243 kts 88°
2026-04-30 22:57 30.15210 -81.61992 4357 ft 234 kts 88°
2026-04-30 22:58 30.15257 -81.58407 4027 ft 216 kts 88°
2026-04-30 22:59 30.16428 -81.53762 3475 ft 196 kts 29°
2026-04-30 22:59 30.20104 -81.54105 2773 ft 181 kts 319°